Regional Weather Roundup
Issued by NWS

Home | Current Version | Previous Version | Graphics & Text | Print | Product List | Glossary On
Versions: 1 2 3 4 5 6 7 8 9 10 11 12 13 14 15 16 17 18 19 20 21 22 23 24 25 26 27 28 29 30 31 32 33 34 35 36 37 38 39 40 41 42 43 44 45 46 47 48 49 50
225
ASUS45 KCYS 251910
RWRWY

WYOMING REGIONAL WEATHER ROUNDUP
NATIONAL WEATHER SERVICE CHEYENNE WY
100 PM MDT SUN JUN 25 2017

NOTE:  "FAIR" INDICATES FEW OR NO CLOUDS BELOW 12,000 FEET
WITH NO SIGNIFICANT WEATHER AND/OR OBSTRUCTIONS TO VISIBILITY.

WYZ001-252000-
YELLOWSTONE NATIONAL PARK

CITY           SKY/WX    TMP DP  RH WIND       PRES   REMARKS
LK YELLOWSTONE   N/A     61  37  41 E7        30.47F
W YELLOWSTONE  NOT AVBL

$$
WYZ002>013-054>058-071-098>099-252000-
NORTHERN WYOMING

CITY           SKY/WX    TMP DP  RH WIND       PRES   REMARKS
JACKSON        SUNNY     70  41  35 CALM      30.38F
CODY           FAIR      71  35  26 VRB3      30.34F
GREYBULL       FAIR      76  32  20 VRB3      30.27F
WORLAND        FAIR      75  36  24 VRB5      30.29F
SHERIDAN       FAIR      74  37  26 VRB5      30.30F
BUFFALO        FAIR      71  36  27 N9        30.35S
GILLETTE       FAIR      75  32  20 N15       30.30S
NEWCASTLE      FAIR      70  32  24 NW10      30.32F

$$
WYZ014>020-022>026-101>103-252000-
CENTRAL WYOMING

CITY           SKY/WX    TMP DP  RH WIND       PRES   REMARKS
BIG PINEY      FAIR      71  35  26 VRB5      30.42F
PINEDALE       FAIR      68  32  26 W6        30.43S
DUBOIS         FAIR      70  32  24 CALM      30.39S
LANDER         FAIR      70  37  29 CALM      30.34F
RIVERTON       FAIR      70  34  26 VRB5      30.34F
CASPER         FAIR      73  35  25 VRB7      30.33F
DOUGLAS        FAIR      74  37  26 NW6       30.33F

$$
WYZ021-027>030-104>119-252000-
SOUTHERN WYOMING

CITY           SKY/WX    TMP DP  RH WIND       PRES   REMARKS
EVANSTON       FAIR      75  33  21 VRB5      30.41S
KEMMERER         N/A     72  30  21 CALM      30.44S
FORT BRIDGER   FAIR      74  29  18 E8        30.44F
ROCK SPRINGS   FAIR      72  29  20 CALM      30.40F
DIXON          FAIR      78  28  15 SW7       30.37F
RAWLINS        FAIR      74  31  20 N9        30.39F
SARATOGA       FAIR      72  32  23 NW8G16    30.41S
LARAMIE        PTSUNNY   68  38  33 N10       30.38F
CHEYENNE       PTSUNNY   62  47  57 SE8G17    30.39F
TORRINGTON     FAIR      76  40  27 S10       30.30F
PINE BLUFFS    CLOUDY    63  46  55 SE7       30.38F

$$




USA.gov is the U.S. government's official web portal to all federal, state and local government web resources and services.